Weather in Belomorsk

Russia / Republic of Karelia     64°31′49″N   34°45′47″E
temp.,
°C
wind,
m/s
gust,
m/s
humid.,
%
clouds,
%
prec.,
mm/h
press.,
hPa
HPBL,
m
27 february, sat
sat2700:000nw2498100 0.1 1002166
03:000nw2697100 0.1 1005224
06:00−1nnw3797100 0.3 1006382
09:00−5nnw3795100 0.4 1010270
12:00−4nnw379458 0.0 1012278
15:00−2nw369342 0.0 1014298
18:00−4w369462 0.0 1013111
21:00−6w239531 0.0 101358
28 february, sun
sun2800:00−8wsw239515 0.0 101233
03:00−8sw239452 0.0 101150
06:00−7sw2392100 0.0 100971
09:00−6sw269498 0.0 1010142
12:00−3sw259597 0.1 1010265
15:00−1wsw369495 0.1 1011443
18:00−1wnw3796100 0.0 1012430
21:00+1w4894100 0.0 1012417
1 march, mon
mon100:00−2sw499276 0.0 1010247
03:00−1wsw6139188 0.0 1009425
06:00+2w6139895 0.0 1005764
09:00+2w6149398 0.0 1004771
12:00+2w51398100 0.0 1003622
15:00+1w41010099 0.0 1002458
18:00+1w4108798 0.0 1000751
21:00+1wnw5129497 0.2 1000872
2 march, tue
tue200:00−2w5138557 0.3 999537
03:00−1w5148379 0.3 999923
06:000nw7178198 0.1 9991153
09:00−3nw5148257 0.1 1003858
12:00−2nw511810 0.0 10071078
15:00−2nw599017 0.1 1009917
18:00−5wnw398534 0.1 1009202
21:00−4nw4119267 0.1 1011562
3 march, wed
wed300:00−6nw4128731 0.0 1012412
03:00−8wnw4118716 0.0 1014273
06:00−8wnw39940 0.0 1014218
09:00−8wnw37910 0.0 1015193
12:00−5w379131 0.0 1014314
15:00−2w389032 0.0 1013508
18:00−4sw379274 0.0 1009201
21:00−2sw5128887 0.0 1005472